Weather History for Bentonville, AR

Change the Weather History Date:

Wednesday, February 27, 2013

  Actual Average Record
Temperature  
Mean Temperature 36 °F -  
Max Temperature 39 °F 54 °F 72 °F (1951)
Min Temperature 32 °F 30 °F 14 °F (1962)
Degree Days  
Heating Degree Days 30    
Moisture  
Dew Point 27 °F    
Average Humidity 75    
Maximum Humidity 81    
Minimum Humidity 65    
Precipitation  
Precipitation 0.00 in - - ()
Sea Level Pressure  
Sea Level Pressure 29.95 in    
Wind  
Wind Speed 11 mph (WNW)    
Max Wind Speed 20 mph    
Max Gust Speed 26 mph    
Visibility 8 miles    
Events      
Averages and records for this station are not official NWS values.
T = Trace of Precipitation, MM = Missing Value Source: NWS Daily Summary

Daily Weather History Graph

Daily Weather History Graph

Search for Another Location

Airport:

Trip Planner

Search our weather history database for the weather conditions in past years. The results will help you decide how hot, cold, wet, or windy it might be!

Date:

Astronomy

Feb. 27, 2013 Rise Set
Actual Time 6:49 AM CST 6:09 PM CST
Civil Twilight 6:23 AM CST 6:35 PM CST
Nautical Twilight 5:53 AM CST 7:05 PM CST
Astronomical Twilight 5:24 AM CST 7:35 PM CST
Moon 8:26 PM CST 7:30 AM CST
Length of Visible Light 12h 12m
Length of Day
11h 20m
Waning Gibbous, 96% of the Moon is Illuminated
Feb 27
Waning Gibbous
Mar 4
Last Quarter
Mar 11
New
Mar 19
First Quarter
Mar 27
Full

Hourly Weather History & Observations

Time (CST) Temp. Windchill Dew Point Humidity Pressure Visibility Wind Dir Wind Speed Gust Speed Precip Events Conditions
12:15 AM 33.8 °F 26.4 °F 28.4 °F 81% 29.84 in 5.0 mi WNW 9.2 mph - N/A   Overcast
12:35 AM 33.8 °F 25.3 °F 28.4 °F 81% 29.84 in 5.0 mi WNW 11.5 mph - N/A   Overcast
12:55 AM 33.8 °F 27.0 °F 28.4 °F 81% 29.85 in 5.0 mi WNW 8.1 mph - N/A   Overcast
1:15 AM 33.8 °F 26.4 °F 28.4 °F 81% 29.85 in 5.0 mi WNW 9.2 mph - N/A   Overcast
1:35 AM 33.8 °F 26.4 °F 28.4 °F 81% 29.85 in 6.0 mi NW 9.2 mph - N/A   Overcast
1:55 AM 33.8 °F 25.8 °F 26.6 °F 75% 29.85 in 9.0 mi NW 10.4 mph - N/A   Overcast
2:15 AM 33.8 °F 29.6 °F 28.4 °F 81% 29.85 in 8.0 mi NW 4.6 mph - N/A   Overcast
2:35 AM 33.8 °F 27.7 °F 28.4 °F 81% 29.85 in 7.0 mi WNW 6.9 mph - N/A   Overcast
2:55 AM 33.8 °F 27.0 °F 28.4 °F 81% 29.85 in 7.0 mi NW 8.1 mph - N/A   Overcast
3:15 AM 33.8 °F 25.8 °F 28.4 °F 81% 29.86 in 7.0 mi WNW 10.4 mph - N/A   Overcast
3:35 AM 33.8 °F 24.8 °F 26.6 °F 75% 29.87 in 8.0 mi NW 12.7 mph - N/A   Overcast
3:55 AM 33.8 °F 26.4 °F 28.4 °F 81% 29.87 in 8.0 mi WNW 9.2 mph 16.1 mph N/A   Overcast
4:15 AM 33.8 °F 25.8 °F 26.6 °F 75% 29.87 in 10.0 mi NW 10.4 mph - N/A   Overcast
4:35 AM 33.8 °F 25.3 °F 26.6 °F 75% 29.87 in 9.0 mi NW 11.5 mph - N/A   Overcast
4:55 AM 33.8 °F 25.8 °F 26.6 °F 75% 29.88 in 7.0 mi WNW 10.4 mph - N/A   Overcast
5:15 AM 33.8 °F 27.7 °F 28.4 °F 81% 29.89 in 8.0 mi West 6.9 mph - N/A   Overcast
5:35 AM 33.8 °F 27.0 °F 26.6 °F 75% 29.88 in 8.0 mi WNW 8.1 mph - N/A   Overcast
5:55 AM 33.8 °F 27.0 °F 26.6 °F 75% 29.89 in 8.0 mi WNW 8.1 mph - N/A   Overcast
6:15 AM 33.8 °F 27.7 °F 28.4 °F 81% 29.89 in 7.0 mi WNW 6.9 mph - N/A   Overcast
6:55 AM 33.8 °F 27.7 °F 28.4 °F 81% 29.90 in 5.0 mi WNW 6.9 mph - N/A   Overcast
7:15 AM 33.8 °F 26.4 °F 28.4 °F 81% 29.90 in 4.0 mi WNW 9.2 mph - N/A   Overcast
7:35 AM 33.8 °F 27.0 °F 28.4 °F 81% 29.90 in 4.0 mi WNW 8.1 mph - N/A   Overcast
7:55 AM 33.8 °F 24.8 °F 28.4 °F 81% 29.91 in 4.0 mi WNW 12.7 mph 16.1 mph N/A   Overcast
8:15 AM 33.8 °F 24.3 °F 28.4 °F 81% 29.92 in 4.0 mi WNW 13.8 mph 18.4 mph N/A   Overcast
8:35 AM 33.8 °F 25.8 °F 28.4 °F 81% 29.94 in 4.0 mi WNW 10.4 mph 17.3 mph N/A   Overcast
8:55 AM 33.8 °F 23.9 °F 28.4 °F 81% 29.94 in 4.0 mi WNW 15.0 mph 19.6 mph N/A   Overcast
9:15 AM 33.8 °F 23.5 °F 28.4 °F 81% 29.95 in 4.0 mi WNW 16.1 mph - N/A   Overcast
9:35 AM 33.8 °F 25.3 °F 28.4 °F 81% 29.96 in 4.0 mi WNW 11.5 mph 17.3 mph N/A   Overcast
9:55 AM 33.8 °F 25.3 °F 28.4 °F 81% 29.96 in 4.0 mi WNW 11.5 mph 18.4 mph N/A   Overcast
10:15 AM 33.8 °F 23.5 °F 28.4 °F 81% 29.96 in 5.0 mi WNW 16.1 mph 20.7 mph N/A   Overcast
10:55 AM 33.8 °F 24.8 °F 28.4 °F 81% 29.97 in 4.0 mi WNW 12.7 mph - N/A   Overcast
11:15 AM 33.8 °F 24.8 °F 28.4 °F 81% 29.97 in 4.0 mi WNW 12.7 mph - N/A   Overcast
11:35 AM 35.6 °F 27.1 °F 28.4 °F 75% 29.97 in 5.0 mi WNW 12.7 mph 17.3 mph N/A   Overcast
11:55 AM 35.6 °F 27.1 °F 28.4 °F 75% 29.97 in 6.0 mi WNW 12.7 mph - N/A   Overcast
12:15 PM 35.6 °F 26.2 °F 28.4 °F 75% 29.97 in 7.0 mi WNW 15.0 mph - N/A   Overcast
12:35 PM 37.4 °F 29.8 °F 28.4 °F 70% 29.97 in 9.0 mi WNW 11.5 mph 19.6 mph N/A   Overcast
12:55 PM 37.4 °F 28.2 °F 28.4 °F 70% 29.97 in 9.0 mi WNW 16.1 mph - N/A   Overcast
1:15 PM 37.4 °F 29.8 °F 28.4 °F 70% 29.96 in 10.0 mi West 11.5 mph - N/A   Overcast
1:35 PM 37.4 °F 27.8 °F 28.4 °F 70% 29.96 in 10.0 mi WNW 17.3 mph 20.7 mph N/A   Overcast
1:55 PM 37.4 °F 28.9 °F 28.4 °F 70% 29.97 in 10.0 mi WNW 13.8 mph - N/A   Overcast
2:35 PM 37.4 °F 27.2 °F 28.4 °F 70% 29.97 in 10.0 mi WNW 19.6 mph 23.0 mph N/A   Overcast
2:55 PM 37.4 °F 28.2 °F 28.4 °F 70% 29.97 in 10.0 mi WNW 16.1 mph 24.2 mph N/A   Overcast
3:15 PM 39.2 °F 29.6 °F 28.4 °F 65% 29.97 in 10.0 mi WNW 19.6 mph 26.5 mph N/A   Mostly Cloudy
3:35 PM 39.2 °F 30.8 °F 28.4 °F 65% 29.97 in 10.0 mi NW 15.0 mph 20.7 mph N/A   Overcast
3:55 PM 39.2 °F 29.6 °F 28.4 °F 65% 29.98 in 10.0 mi West 19.6 mph 24.2 mph N/A   Overcast
4:15 PM 39.2 °F 29.8 °F 28.4 °F 65% 29.98 in 10.0 mi NW 18.4 mph - N/A   Overcast
4:35 PM 37.4 °F 28.9 °F 26.6 °F 65% 29.99 in 10.0 mi WNW 13.8 mph 20.7 mph N/A   Overcast
4:55 PM 37.4 °F 28.2 °F 28.4 °F 70% 30.00 in 10.0 mi WNW 16.1 mph 20.7 mph N/A   Mostly Cloudy
5:15 PM 35.6 °F 26.2 °F 26.6 °F 70% 30.01 in 10.0 mi NW 15.0 mph - N/A   Mostly Cloudy
5:35 PM 35.6 °F 26.2 °F 24.8 °F 65% 30.02 in 10.0 mi WNW 15.0 mph 23.0 mph N/A   Partly Cloudy
5:55 PM 35.6 °F 26.6 °F 24.8 °F 65% 30.02 in 10.0 mi WNW 13.8 mph - N/A   Partly Cloudy
6:15 PM 33.8 °F 26.4 °F 24.8 °F 70% 30.02 in 10.0 mi WNW 9.2 mph - N/A   Mostly Cloudy
6:35 PM 33.8 °F 25.8 °F 24.8 °F 70% 30.03 in 10.0 mi WNW 10.4 mph - N/A   Overcast
6:55 PM 33.8 °F 25.8 °F 26.6 °F 75% 30.03 in 10.0 mi WNW 10.4 mph - N/A   Mostly Cloudy
7:15 PM 33.8 °F 25.8 °F 26.6 °F 75% 30.03 in 10.0 mi WNW 10.4 mph - N/A   Scattered Clouds
7:35 PM 33.8 °F 25.8 °F 24.8 °F 70% 30.04 in 10.0 mi WNW 10.4 mph - N/A   Clear
8:15 PM 33.8 °F 25.8 °F 24.8 °F 70% 30.04 in 10.0 mi WNW 10.4 mph - N/A   Clear
8:35 PM 33.8 °F 26.4 °F 24.8 °F 70% 30.05 in 10.0 mi WNW 9.2 mph - N/A   Clear
8:55 PM 33.8 °F 25.8 °F 24.8 °F 70% 30.05 in 10.0 mi WNW 10.4 mph - N/A   Clear
9:15 PM 33.8 °F 26.4 °F 24.8 °F 70% 30.05 in 10.0 mi WNW 9.2 mph 16.1 mph N/A   Clear
9:35 PM 33.8 °F 25.3 °F 24.8 °F 70% 30.05 in 10.0 mi West 11.5 mph - N/A   Clear
9:55 PM 33.8 °F 26.4 °F 24.8 °F 70% 30.05 in 10.0 mi West 9.2 mph - N/A   Clear
10:35 PM 32.0 °F 24.2 °F 24.8 °F 75% 30.05 in 10.0 mi WNW 9.2 mph - N/A   Clear
10:55 PM 33.8 °F 25.8 °F 24.8 °F 70% 30.05 in 10.0 mi NW 10.4 mph - N/A   Clear
11:15 PM 33.8 °F 25.8 °F 24.8 °F 70% 30.05 in 10.0 mi NW 10.4 mph - N/A   Clear
11:35 PM 33.8 °F 25.3 °F 24.8 °F 70% 30.04 in 10.0 mi NW 11.5 mph 17.3 mph N/A   Clear
11:55 PM 32.0 °F 24.2 °F 24.8 °F 75% 30.04 in 10.0 mi NW 9.2 mph - N/A   Clear